DW0215 Kalamaria GR current weather conditions

sailwx.info

Wind from 253

Air temperature 12.8° C
Dewpoint 6.8° C

Last reported at 2018-Nov-19 15:05 UTC.
Time now 2018-Nov-19 15:18 UTC

Location: N 40°35' E 022°57'.
View on Google Maps.

See reports from other nearby stations

  
Tides and Currents Weather Stations Pressure Air Temp Water Temp Dewpoint Dewpoint Depression Visibility Wind Speed Wind Dir Waves Ship Positions
date/time (UTC)wind fromknots sea level pressurealtimeterstation pressurevisibilityair tempwater tempwave heightnotes
2018-Nov-19 15:05 253 12.8
2018-Nov-19 15:00 253 12.8
2018-Nov-19 14:55 253 13.3
2018-Nov-19 14:50 253 2 gusting 4 13.3
2018-Nov-19 14:45 253 0 gusting 2 13.3
2018-Nov-19 14:40 253 13.3
2018-Nov-19 14:35 253 13.3
2018-Nov-19 14:30 253 13.3
2018-Nov-19 14:25 253 1 gusting 4 13.3
2018-Nov-19 14:20 253 0 gusting 2 13.3
2018-Nov-19 14:15 253 0 gusting 5 13.3
2018-Nov-19 14:10 254 0 gusting 1 13.9
2018-Nov-19 14:05 254 13.9
2018-Nov-19 14:00 254 13.9
2018-Nov-19 13:55 254 0 gusting 1 13.9
2018-Nov-19 13:50 254 1 gusting 5 13.9
2018-Nov-19 13:45 252 1 gusting 5 13.9
2018-Nov-19 13:40 253 3 gusting 6 14.4
2018-Nov-19 13:35 257 1 gusting 5 14.4
2018-Nov-19 13:30 257 1 gusting 4 14.4
2018-Nov-19 13:25 269 2 gusting 5 14.4
2018-Nov-19 13:20 278 1 gusting 2 14.4
2018-Nov-19 13:15 278 1 gusting 2 14.4
2018-Nov-19 13:10 278 0 gusting 6 13.9
2018-Nov-19 13:05 280 1 gusting 4 13.9
2018-Nov-19 13:00 280 1 gusting 2 13.9
2018-Nov-19 12:55 279 13.9
2018-Nov-19 12:50 279 0 gusting 4 13.9
2018-Nov-19 12:45 280 2 gusting 5 13.9
2018-Nov-19 12:40 280 1 gusting 4 13.9
2018-Nov-19 12:35 281 0 gusting 2 13.9
2018-Nov-19 12:30 281 1 gusting 2 13.9
2018-Nov-19 12:25 282 2 gusting 6 13.3
2018-Nov-19 12:20 278 2 gusting 5 13.3
2018-Nov-19 12:15 279 4 gusting 6 13.3
2018-Nov-19 12:10 286 2 gusting 6 13.3
2018-Nov-19 12:05 294 2 gusting 7 13.9
2018-Nov-19 12:00 273 2 gusting 5 13.3
2018-Nov-19 11:55 271 3 gusting 6 13.3
2018-Nov-19 11:50 270 1 gusting 5 13.3
2018-Nov-19 11:45 269 3 gusting 6 13.3
2018-Nov-19 11:40 277 4 gusting 6 13.3
2018-Nov-19 11:35 278 2 gusting 6 13.3
2018-Nov-19 11:30 279 4 gusting 6 12.8
2018-Nov-19 11:25 322 1 gusting 6 13.3
2018-Nov-19 11:20 330 2 gusting 6 13.3
2018-Nov-19 11:15 285 3 gusting 7 12.8
2018-Nov-19 11:10 271 2 gusting 5 13.3
2018-Nov-19 11:05 271 3 gusting 6 12.8
2018-Nov-19 11:00 284 1 gusting 6 12.8
2018-Nov-19 10:55 283 0 gusting 5 12.8
2018-Nov-19 10:50 296 2 gusting 6 12.8
2018-Nov-19 10:45 306 2 gusting 5 12.2
2018-Nov-19 10:40 303 1 gusting 4 12.2
2018-Nov-19 10:35 303 2 gusting 5 11.7
2018-Nov-19 10:30 302 2 gusting 6 11.7
2018-Nov-19 10:25 300 3 gusting 6 11.7
2018-Nov-19 10:20 275 2 gusting 5 11.7
2018-Nov-19 10:15 275 2 gusting 5 11.1
2018-Nov-19 10:10 273 3 gusting 6 11.1
2018-Nov-19 10:05 273 3 gusting 7 11.1
2018-Nov-19 10:00 273 1 gusting 5 11.7
2018-Nov-19 09:55 277 0 gusting 2 11.1
2018-Nov-19 09:50 277 2 gusting 6 10.6
2018-Nov-19 09:45 277 3 gusting 6 10.6
2018-Nov-19 09:40 279 2 gusting 6 10.6
2018-Nov-19 09:35 284 1 gusting 6 10.6
2018-Nov-19 09:30 285 2 gusting 6 10.0
2018-Nov-19 09:25 286 2 gusting 6 10.0
2018-Nov-19 09:20 315 2 gusting 4 10.0
2018-Nov-19 09:15 314 2 gusting 6 9.4
2018-Nov-19 09:10 308 3 gusting 5 9.4
2018-Nov-19 09:05 296 4 gusting 6 9.4
2018-Nov-19 09:00 301 2 gusting 10 9.4
2018-Nov-19 08:55 299 4 gusting 7 9.4
2018-Nov-19 08:50 311 3 gusting 8 9.4
2018-Nov-19 08:45 323 4 gusting 10 9.4
2018-Nov-19 08:40 274 6 gusting 10 8.9
2018-Nov-19 08:35 277 6 gusting 10 8.9
2018-Nov-19 08:30 271 2 gusting 6 9.4
2018-Nov-19 08:25 287 4 gusting 7 8.9
2018-Nov-19 08:20 272 3 gusting 7 8.9
2018-Nov-19 08:15 280 2 gusting 4 8.9
2018-Nov-19 08:10 283 0 gusting 2 8.9
2018-Nov-19 08:05 282 2 gusting 4 8.9
2018-Nov-19 08:00 278 2 gusting 2 8.9
2018-Nov-19 07:55 279 1 gusting 5 8.9
2018-Nov-19 07:50 277 1 gusting 6 8.9
2018-Nov-19 07:45 281 1 gusting 4 8.9
2018-Nov-19 07:40 281 2 gusting 6 8.9
2018-Nov-19 07:35 285 4 gusting 4 8.9
2018-Nov-19 07:30 286 1 gusting 6 8.3
2018-Nov-19 07:25 296 2 gusting 2 8.3
2018-Nov-19 07:20 314 2 gusting 2 8.3
2018-Nov-19 07:15 317 3 gusting 5 8.3
2018-Nov-19 07:10 274 5 gusting 6 7.8
2018-Nov-19 07:05 271 2 gusting 5 7.8
2018-Nov-19 07:00 273 2 gusting 5 7.8
2018-Nov-19 06:55 273 2 gusting 6 7.8
2018-Nov-19 06:50 273 1 gusting 5 7.8
2018-Nov-19 06:45 272 3 gusting 4 7.8
2018-Nov-19 06:40 277 2 gusting 4 7.8
2018-Nov-19 06:35 286 2 gusting 2 7.8
2018-Nov-19 06:30 275 2 gusting 4 7.8
2018-Nov-19 06:25 276 3 gusting 6 7.8
2018-Nov-19 06:20 284 2 gusting 6 7.8
2018-Nov-19 06:15 285 2 gusting 5 7.8
2018-Nov-19 06:10 284 1 gusting 5 7.8
2018-Nov-19 06:05 282 2 gusting 6 7.8
2018-Nov-19 06:00 263 0 gusting 4 7.8
2018-Nov-19 05:55 263 1 gusting 6 7.8
2018-Nov-19 05:50 262 2 gusting 6 7.8
2018-Nov-19 05:45 275 4 gusting 7 7.8
2018-Nov-19 05:40 287 2 gusting 10 7.8
2018-Nov-19 05:35 314 3 gusting 6 7.8
2018-Nov-19 05:30 329 3 gusting 6 7.8
2018-Nov-19 05:25 289 2 gusting 6 7.8
2018-Nov-19 05:20 308 4 gusting 7 7.8
2018-Nov-19 05:15 293 2 gusting 6 7.8
2018-Nov-19 05:10 291 2 gusting 7 7.8
2018-Nov-19 05:05 274 2 gusting 6 7.8
2018-Nov-19 05:00 275 2 gusting 7 8.3
2018-Nov-19 04:55 271 2 gusting 5 8.3
2018-Nov-19 04:50 271 1 gusting 4 8.3
2018-Nov-19 04:45 271 2 gusting 4 8.3
2018-Nov-19 04:40 271 0 gusting 2 8.3
2018-Nov-19 04:35 271 1 gusting 2 8.3
2018-Nov-19 04:30 271 1 gusting 6 8.3
2018-Nov-19 04:25 271 1 gusting 5 8.3
2018-Nov-19 04:20 270 2 gusting 6 8.3
2018-Nov-19 04:15 288 2 gusting 5 8.3
2018-Nov-19 04:10 291 1 gusting 2 8.3
2018-Nov-19 04:05 291 0 gusting 2 8.3
2018-Nov-19 04:00 291 0 gusting 5 8.3
2018-Nov-19 03:55 290 1 gusting 2 8.9
2018-Nov-19 03:50 290 1 gusting 2 8.9
2018-Nov-19 03:45 290 0 gusting 4 8.9
2018-Nov-19 03:40 290 1 gusting 4 8.9
2018-Nov-19 03:35 290 0 gusting 4 8.9
2018-Nov-19 03:30 290 0 gusting 2 8.9
2018-Nov-19 03:25 290 1 gusting 4 8.3
2018-Nov-19 03:20 288 1 gusting 4 8.3
2018-Nov-19 03:15 288 2 gusting 6 8.9
2018-Nov-19 03:10 290 1 gusting 6 8.3
2018-Nov-19 03:05 293 1 gusting 4 8.3
2018-Nov-19 03:00 293 0 gusting 2 8.3
2018-Nov-19 02:55 293 0 gusting 2 8.3
2018-Nov-19 02:50 293 1 gusting 2 8.3
2018-Nov-19 02:45 293 1 gusting 2 8.3
2018-Nov-19 02:40 293 2 gusting 6 8.3
2018-Nov-19 02:35 288 1 gusting 4 8.3
2018-Nov-19 02:30 288 1 gusting 5 8.3
2018-Nov-19 02:25 288 2 gusting 6 8.3
2018-Nov-19 02:20 296 1 gusting 6 8.3
2018-Nov-19 02:15 296 1 gusting 5 8.3
2018-Nov-19 02:10 298 1 gusting 4 8.3
2018-Nov-19 02:05 302 1 gusting 5 8.3
2018-Nov-19 02:00 291 2 gusting 6 8.3
2018-Nov-19 01:55 273 2 gusting 6 7.8
2018-Nov-19 01:50 272 1 gusting 6 7.8
2018-Nov-19 01:45 276 2 gusting 5 7.8
2018-Nov-19 01:40 276 3 gusting 7 8.3
2018-Nov-19 01:35 279 2 gusting 6 8.3
2018-Nov-19 01:30 278 2 gusting 5 8.9
2018-Nov-19 01:25 279 1 gusting 5 8.9
2018-Nov-19 01:20 284 8.3
2018-Nov-19 01:15 284 8.3
2018-Nov-19 01:10 284 8.3
2018-Nov-19 01:05 284 8.3
2018-Nov-19 01:00 284 0 gusting 2 8.3
2018-Nov-19 00:55 284 8.3
2018-Nov-19 00:50 284 0 gusting 1 8.3
2018-Nov-19 00:45 284 1 gusting 2 8.3
2018-Nov-19 00:40 284 8.3
2018-Nov-19 00:35 284 8.3
2018-Nov-19 00:30 284 8.3
2018-Nov-19 00:25 284 1 gusting 2 8.3
2018-Nov-19 00:20 284 0 gusting 2 7.8
2018-Nov-19 00:15 284 7.8
2018-Nov-19 00:10 284 1 gusting 4 7.8
2018-Nov-19 00:05 284 1 gusting 6 7.8
2018-Nov-19 00:00 279 2 gusting 6 7.8
2018-Nov-18 23:55 273 1 gusting 6 7.8
2018-Nov-18 23:50 273 2 gusting 6 7.8
2018-Nov-18 23:45 283 3 gusting 5 7.8
2018-Nov-18 23:40 278 2 gusting 6 7.8
2018-Nov-18 23:35 287 4 gusting 8 7.8
2018-Nov-18 23:30 306 2 gusting 6 7.8
2018-Nov-18 23:25 290 4 gusting 6 7.8
2018-Nov-18 23:20 294 4 gusting 8 7.8
2018-Nov-18 23:15 283 5 gusting 12 7.8
2018-Nov-18 23:10 287 4 gusting 7 7.8
2018-Nov-18 23:05 275 3 gusting 7 7.8
2018-Nov-18 23:00 275 2 gusting 10 7.8
2018-Nov-18 22:55 283 4 gusting 10 7.8
2018-Nov-18 22:50 271 5 gusting 7 8.3
2018-Nov-18 22:45 280 2 gusting 6 8.3
2018-Nov-18 22:40 291 1 gusting 10 8.3
2018-Nov-18 22:35 269 4 gusting 8 8.3
2018-Nov-18 22:30 276 0 gusting 7 8.9
2018-Nov-18 22:25 334 2 gusting 7 8.9
2018-Nov-18 22:20 279 1 gusting 5 8.9
2018-Nov-18 22:15 278 3 gusting 7 8.9
2018-Nov-18 22:10 285 2 gusting 6 8.9
2018-Nov-18 22:05 284 2 gusting 6 8.9
2018-Nov-18 22:00 289 2 gusting 6 8.9
2018-Nov-18 21:55 299 2 gusting 6 8.9
2018-Nov-18 21:50 299 1 gusting 5 8.9
2018-Nov-18 21:45 310 1 gusting 2 8.9
2018-Nov-18 21:40 310 1 gusting 4 8.9
2018-Nov-18 21:35 309 1 gusting 2 8.9
2018-Nov-18 21:30 310 1 gusting 2 8.9
2018-Nov-18 21:25 310 1 gusting 2 8.9
2018-Nov-18 21:20 309 0 gusting 2 8.9
2018-Nov-18 21:15 315 2 gusting 4 8.9
2018-Nov-18 21:10 321 1 gusting 2 8.9
2018-Nov-18 21:05 321 1 gusting 4 8.9
2018-Nov-18 21:00 321 1 gusting 2 8.9
2018-Nov-18 20:55 321 1 gusting 2 8.9
2018-Nov-18 20:50 321 0 gusting 2 8.9
2018-Nov-18 20:45 321 2 gusting 4 8.9
2018-Nov-18 20:40 321 3 gusting 6 8.9
2018-Nov-18 20:35 335 1 gusting 6 8.3
2018-Nov-18 20:30 338 2 gusting 6 8.3
2018-Nov-18 20:25 310 3 gusting 7 8.3
2018-Nov-18 20:20 312 3 gusting 6 8.3
2018-Nov-18 20:15 300 2 gusting 6 8.3
2018-Nov-18 20:10 313 4 gusting 7 8.3
2018-Nov-18 20:05 319 3 gusting 8 8.3
2018-Nov-18 20:00 317 5 gusting 10 8.9
2018-Nov-18 19:55 272 2 gusting 6 9.4
2018-Nov-18 19:50 287 2 gusting 6 9.4
2018-Nov-18 19:45 284 3 gusting 6 9.4
2018-Nov-18 19:40 286 2 gusting 6 9.4
2018-Nov-18 19:35 278 4 gusting 7 9.4
2018-Nov-18 19:30 297 3 gusting 6 9.4
2018-Nov-18 19:25 322 4 gusting 6 9.4
2018-Nov-18 19:20 301 2 gusting 6 9.4
2018-Nov-18 19:15 299 3 gusting 7 9.4
2018-Nov-18 19:10 306 4 gusting 6 9.4
2018-Nov-18 19:05 281 6 gusting 10 9.4
2018-Nov-18 19:00 283 4 gusting 10 9.4
2018-Nov-18 18:55 291 6 gusting 11 10.0
2018-Nov-18 18:50 350 2 gusting 4 10.0
2018-Nov-18 18:45 055 10.0
2018-Nov-18 18:40 055 10.0
2018-Nov-18 18:35 055 0 gusting 5 10.0
2018-Nov-18 18:30 059 2 gusting 6 10.0
2018-Nov-18 18:25 060 2 gusting 6 10.0
2018-Nov-18 18:20 068 2 gusting 6 10.0
2018-Nov-18 18:15 071 0 gusting 2 10.0
2018-Nov-18 18:10 071 2 gusting 7 10.0
2018-Nov-18 18:05 034 1 gusting 6 10.0
2018-Nov-18 18:00 025 2 gusting 5 10.0
2018-Nov-18 17:55 048 1 gusting 5 10.0
2018-Nov-18 17:50 044 1 gusting 4 10.0
2018-Nov-18 17:45 046 1 gusting 5 10.0
2018-Nov-18 17:40 049 0 gusting 4 10.0
2018-Nov-18 17:35 050 2 gusting 6 10.0
2018-Nov-18 17:30 096 4 gusting 6 9.4
2018-Nov-18 17:25 054 2 gusting 5 9.4
2018-Nov-18 17:20 057 2 gusting 4 10.0
2018-Nov-18 17:15 057 2 gusting 4 10.0
2018-Nov-18 17:10 057 1 gusting 2 10.0
2018-Nov-18 17:05 057 0 gusting 2 10.0
2018-Nov-18 17:00 057 10.0
2018-Nov-18 16:55 057 10.0
2018-Nov-18 16:50 057 10.0
2018-Nov-18 16:45 057 10.0
2018-Nov-18 16:40 057 10.0
2018-Nov-18 16:35 057 10.0
2018-Nov-18 16:30 057 10.0
2018-Nov-18 16:25 057 9.4
2018-Nov-18 16:20 057 10.0
2018-Nov-18 16:15 057 10.0
2018-Nov-18 16:10 057 10.0
2018-Nov-18 16:05 057 10.0
2018-Nov-18 16:00 057 10.0
2018-Nov-18 15:55 057 10.0
2018-Nov-18 15:50 057 10.0
2018-Nov-18 15:45 057 10.0
2018-Nov-18 15:40 057 10.0
2018-Nov-18 15:35 057 10.0
2018-Nov-18 15:30 057 10.0
2018-Nov-18 15:25 057 0 gusting 2 10.0
2018-Nov-18 15:20 057 0 gusting 2 10.0
2018-Nov-18 15:15 057 10.0
2018-Nov-18 15:10 057 0 gusting 2 10.0
2018-Nov-18 15:05 057 10.0
2018-Nov-18 15:00 057 10.0
2018-Nov-18 14:55 057 10.0
2018-Nov-18 14:50 057 10.0
2018-Nov-18 14:45 057 10.0
2018-Nov-18 14:40 057 2 gusting 6 10.0
2018-Nov-18 14:35 071 0 gusting 2 10.6
2018-Nov-18 14:30 071 0 gusting 2 10.0
2018-Nov-18 14:25 071 1 gusting 6 10.0
2018-Nov-18 14:20 071 2 gusting 10 10.0
2018-Nov-18 14:15 048 5 gusting 10 10.0
2018-Nov-18 14:10 067 6 gusting 11 10.0
2018-Nov-18 14:05 073 10 gusting 19 10.0
2018-Nov-18 14:00 069 6 gusting 11 10.0
2018-Nov-18 13:55 091 6 gusting 13 10.0
2018-Nov-18 13:50 076 4 gusting 12 10.0
2018-Nov-18 13:45 065 6 gusting 13 10.0
2018-Nov-18 13:40 092 6 gusting 10 10.0
2018-Nov-18 13:35 068 3 gusting 6 10.0
2018-Nov-18 13:30 069 4 gusting 7 10.0
2018-Nov-18 13:25 068 5 gusting 11 10.0
2018-Nov-18 13:20 068 7 gusting 19 10.0
2018-Nov-18 13:15 072 9 gusting 19 10.0
2018-Nov-18 13:10 083 6 gusting 13 10.0
2018-Nov-18 13:05 072 7 gusting 14 10.0
2018-Nov-18 13:00 065 7 gusting 14 10.0
2018-Nov-18 12:55 063 6 gusting 14 10.0
2018-Nov-18 12:50 076 8 gusting 17 10.0
2018-Nov-18 12:45 072 8 gusting 17 10.0
2018-Nov-18 12:40 067 6 gusting 15 10.0
2018-Nov-18 12:35 069 6 gusting 13 10.0
2018-Nov-18 12:30 078 6 gusting 12 10.0
2018-Nov-18 12:25 063 6 gusting 17 10.0
2018-Nov-18 12:20 064 5 gusting 13 9.4
2018-Nov-18 12:15 060 8 gusting 19 9.4
2018-Nov-18 12:10 085 7 gusting 13 9.4
2018-Nov-18 12:05 074 6 gusting 15 9.4
2018-Nov-18 12:00 076 8 gusting 17 9.4
2018-Nov-18 11:55 074 8 gusting 17 9.4
2018-Nov-18 11:50 073 7 gusting 11 9.4
2018-Nov-18 11:45 059 4 gusting 10 9.4
2018-Nov-18 11:40 084 8 gusting 13 9.4
2018-Nov-18 11:35 079 7 gusting 17 9.4
2018-Nov-18 11:30 081 7 gusting 17 9.4
2018-Nov-18 11:25 064 6 gusting 17 9.4
2018-Nov-18 11:20 074 6 gusting 14 9.4
2018-Nov-18 11:15 097 6 gusting 13 9.4
2018-Nov-18 11:10 076 6 gusting 13 9.4
2018-Nov-18 11:05 085 8 gusting 15 9.4
2018-Nov-18 11:00 081 7 gusting 13 9.4
2018-Nov-18 10:55 066 6 gusting 14 9.4
2018-Nov-18 10:50 064 6 gusting 18 9.4
2018-Nov-18 10:45 090 7 gusting 17 9.4
2018-Nov-18 10:40 074 6 gusting 18 9.4
2018-Nov-18 10:35 067 8 gusting 18 9.4
2018-Nov-18 10:30 074 7 gusting 19 9.4
2018-Nov-18 10:25 043 5 gusting 14 9.4
2018-Nov-18 10:20 066 7 gusting 13 9.4
2018-Nov-18 10:15 061 8 gusting 13 9.4
2018-Nov-18 10:10 069 8 gusting 14 9.4
2018-Nov-18 10:05 111 6 gusting 10 9.4
2018-Nov-18 10:00 073 2 gusting 7 9.4
2018-Nov-18 09:55 071 0 gusting 1 9.4
2018-Nov-18 09:50 071 0 gusting 2 9.4
2018-Nov-18 09:45 071 9.4
2018-Nov-18 09:40 071 9.4
2018-Nov-18 09:35 071 0 gusting 2 9.4
2018-Nov-18 09:30 071 1 gusting 6 9.4
2018-Nov-18 09:25 064 5 gusting 8 9.4
2018-Nov-18 09:20 070 6 gusting 11 9.4
2018-Nov-18 09:15 075 4 gusting 13 9.4
2018-Nov-18 09:10 055 4 gusting 10 9.4
2018-Nov-18 09:05 069 5 gusting 17 9.4
2018-Nov-18 09:00 053 7 gusting 13 9.4
2018-Nov-18 08:55 072 6 gusting 12 9.4
2018-Nov-18 08:50 083 6 gusting 10 9.4
2018-Nov-18 08:45 073 5 gusting 10 9.4
2018-Nov-18 08:40 057 7 gusting 13 9.4
2018-Nov-18 08:35 091 6 gusting 13 9.4
2018-Nov-18 08:30 071 4 gusting 11 9.4
2018-Nov-18 08:25 060 4 gusting 7 9.4
2018-Nov-18 08:20 089 4 gusting 10 9.4
2018-Nov-18 08:15 062 0 gusting 10 9.4
2018-Nov-18 08:10 102 6 gusting 10 9.4
2018-Nov-18 08:05 072 2 gusting 7 9.4
2018-Nov-18 08:00 068 4 gusting 7 9.4
2018-Nov-18 07:55 065 1 gusting 6 9.4
2018-Nov-18 07:50 070 7 gusting 10 9.4
2018-Nov-18 07:45 055 2 gusting 10 9.4
2018-Nov-18 07:40 059 4 gusting 8 9.4
2018-Nov-18 07:35 047 4 gusting 10 9.4
2018-Nov-18 07:30 054 5 gusting 13 8.9
2018-Nov-18 07:25 060 1 gusting 6 8.9
2018-Nov-18 07:20 061 2 gusting 6 8.9
2018-Nov-18 07:15 061 2 gusting 6 8.9
2018-Nov-18 07:10 061 2 gusting 6 8.9
2018-Nov-18 07:05 053 3 gusting 5 8.9
2018-Nov-18 07:00 049 1 gusting 4 8.9
2018-Nov-18 06:55 050 2 gusting 5 8.9
2018-Nov-18 06:50 049 1 gusting 2 8.9
2018-Nov-18 06:45 061 0 gusting 2 8.9
2018-Nov-18 06:40 063 1 gusting 2 8.9
2018-Nov-18 06:35 063 8.9
2018-Nov-18 06:30 063 8.9
2018-Nov-18 06:25 063 8.9
2018-Nov-18 06:20 063 8.9
2018-Nov-18 06:15 063 8.9
2018-Nov-18 06:10 063 8.9
2018-Nov-18 06:05 063 8.9
2018-Nov-18 06:00 063 8.3
2018-Nov-18 05:55 063 8.3
2018-Nov-18 05:50 063 8.3
2018-Nov-18 05:45 063 8.3
2018-Nov-18 05:40 063 8.9
2018-Nov-18 05:35 063 8.9
2018-Nov-18 05:30 063 8.9
2018-Nov-18 05:25 063 8.9
2018-Nov-18 05:20 063 8.9
2018-Nov-18 05:15 063 8.9
2018-Nov-18 05:10 063 8.9
2018-Nov-18 05:05 063 8.9
2018-Nov-18 05:00 063 8.9
2018-Nov-18 04:55 063 8.9
2018-Nov-18 04:50 063 8.9
2018-Nov-18 04:45 063 8.3
2018-Nov-18 04:40 063 8.3
2018-Nov-18 04:35 063 0 gusting 2 8.3
2018-Nov-18 04:30 063 1 gusting 4 8.9
2018-Nov-18 04:25 063 8.9
2018-Nov-18 04:20 063 8.9
2018-Nov-18 04:15 063 8.9
2018-Nov-18 04:10 063 8.9
2018-Nov-18 04:05 063 1 gusting 2 8.9
2018-Nov-18 04:00 063 2 gusting 2 9.4
2018-Nov-18 03:55 063 1 gusting 4 9.4
2018-Nov-18 03:50 063 0 gusting 2 9.4
2018-Nov-18 03:45 063 0 gusting 2 9.4
2018-Nov-18 03:40 063 9.4
2018-Nov-18 03:35 063 9.4
2018-Nov-18 03:30 063 9.4
2018-Nov-18 03:25 063 9.4
2018-Nov-18 03:20 063 9.4
2018-Nov-18 03:15 063 9.4
2018-Nov-18 03:10 063 0 gusting 2 9.4
2018-Nov-18 03:05 063 9.4
2018-Nov-18 03:00 063 3 gusting 6 9.4
2018-Nov-18 02:55 063 9.4
2018-Nov-18 02:50 063 9.4
2018-Nov-18 02:45 063 9.4
2018-Nov-18 02:40 063 0 gusting 6 9.4
2018-Nov-18 02:35 062 0 gusting 2 9.4
2018-Nov-18 02:30 062 0 gusting 2 9.4
2018-Nov-18 02:25 064 1 gusting 6 9.4
2018-Nov-18 02:20 062 2 gusting 7 9.4
2018-Nov-18 02:15 105 4 gusting 7 9.4
2018-Nov-18 02:10 072 2 gusting 11 9.4
2018-Nov-18 02:05 059 6 gusting 10 9.4
2018-Nov-18 02:00 072 5 gusting 10 9.4
2018-Nov-18 01:55 071 5 gusting 11 9.4
2018-Nov-18 01:50 069 4 gusting 12 9.4
2018-Nov-18 01:45 070 2 gusting 7 9.4
2018-Nov-18 01:40 053 5 gusting 10 9.4
2018-Nov-18 01:35 056 4 gusting 7 9.4
2018-Nov-18 01:30 071 5 gusting 10 9.4
2018-Nov-18 01:25 064 5 gusting 10 9.4
2018-Nov-18 01:20 083 5 gusting 11 9.4
2018-Nov-18 01:15 113 3 gusting 8 9.4
2018-Nov-18 01:10 328 0 gusting 6 8.9
2018-Nov-18 01:05 251 8.9
2018-Nov-18 01:00 251 8.9
2018-Nov-18 00:55 251 8.9
2018-Nov-18 00:50 251 8.9
2018-Nov-18 00:45 251 8.9
2018-Nov-18 00:40 251 8.9
2018-Nov-18 00:35 251 0 gusting 2 8.9
2018-Nov-18 00:30 251 1 gusting 2 8.9
2018-Nov-18 00:25 251 1 gusting 4 8.9
2018-Nov-18 00:20 251 1 gusting 6 8.9
2018-Nov-18 00:15 259 1 gusting 6 8.9
2018-Nov-18 00:10 263 8.9
2018-Nov-18 00:05 251 3 gusting 7 8.9
2018-Nov-18 00:00 261 5 gusting 11 8.9
2018-Nov-17 23:55 229 2 gusting 6 9.4
2018-Nov-17 23:50 225 1 gusting 5 9.4
2018-Nov-17 23:45 218 3 gusting 6 9.4
2018-Nov-17 23:40 215 1 gusting 6 9.4
2018-Nov-17 23:35 213 0 gusting 4 9.4
2018-Nov-17 23:30 213 0 gusting 4 9.4
2018-Nov-17 23:25 213 1 gusting 4 9.4
2018-Nov-17 23:20 213 1 gusting 4 9.4
2018-Nov-17 23:15 213 1 gusting 4 9.4
2018-Nov-17 23:10 213 3 gusting 5 9.4
2018-Nov-17 23:05 213 1 gusting 2 9.4
2018-Nov-17 23:00 213 1 gusting 2 9.4
2018-Nov-17 22:55 213 1 gusting 4 9.4
2018-Nov-17 22:50 213 9.4
2018-Nov-17 22:45 213 9.4
2018-Nov-17 22:40 213 10.0
2018-Nov-17 22:35 213 10.0
2018-Nov-17 22:30 213 10.0
2018-Nov-17 22:25 213 10.0
2018-Nov-17 22:20 213 10.0
2018-Nov-17 22:15 213 10.0
2018-Nov-17 22:10 213 0 gusting 2 10.0
2018-Nov-17 22:05 213 10.0
2018-Nov-17 22:00 213 0 gusting 2 10.0
2018-Nov-17 21:55 213 0 gusting 2 10.0
2018-Nov-17 21:50 213 10.0
2018-Nov-17 21:45 213 0 gusting 2 10.0
2018-Nov-17 21:40 213 0 gusting 2 10.0
2018-Nov-17 21:35 213 0 gusting 2 10.0
2018-Nov-17 21:30 213 1 gusting 2 10.0
2018-Nov-17 21:25 213 0 gusting 4 10.0
2018-Nov-17 21:20 213 1 gusting 4 10.0
2018-Nov-17 21:15 213 1 gusting 4 10.0
2018-Nov-17 21:10 213 1 gusting 6 10.0
2018-Nov-17 21:05 146 10.0
2018-Nov-17 21:00 064 10.0
2018-Nov-17 20:55 064 0 gusting 2 10.0
2018-Nov-17 20:50 063 10.0
2018-Nov-17 20:45 063 0 gusting 6 10.0
2018-Nov-17 20:40 068 3 gusting 6 10.0
2018-Nov-17 20:35 089 4 gusting 10 10.0
2018-Nov-17 20:30 096 4 gusting 11 10.0
2018-Nov-17 20:25 109 4 gusting 11 10.0
2018-Nov-17 20:20 083 3 gusting 11 10.0
2018-Nov-17 20:15 086 4 gusting 8 10.0
2018-Nov-17 20:10 036 1 gusting 7 10.0
2018-Nov-17 20:05 110 4 gusting 7 10.0
2018-Nov-17 20:00 085 4 gusting 12 10.0
2018-Nov-17 19:55 086 5 gusting 12 10.0
2018-Nov-17 19:50 119 3 gusting 8 10.0
2018-Nov-17 19:45 084 0 gusting 6 10.0
2018-Nov-17 19:40 067 2 gusting 7 10.0
2018-Nov-17 19:35 071 3 gusting 7 10.0
2018-Nov-17 19:30 100 0 gusting 6 10.0
2018-Nov-17 19:25 079 10.0
2018-Nov-17 19:20 067 0 gusting 2 10.0
2018-Nov-17 19:15 067 0 gusting 2 10.0
2018-Nov-17 19:10 067 1 gusting 4 10.0
2018-Nov-17 19:05 067 1 gusting 4 10.0
2018-Nov-17 19:00 067 2 gusting 6 10.0
2018-Nov-17 18:55 062 3 gusting 6 10.0
2018-Nov-17 18:50 065 1 gusting 4 10.0
2018-Nov-17 18:45 065 0 gusting 6 10.0
2018-Nov-17 18:40 066 3 gusting 7 10.0
2018-Nov-17 18:35 103 4 gusting 8 10.0
2018-Nov-17 18:30 082 1 gusting 6 10.0
2018-Nov-17 18:25 079 1 gusting 6 10.0
2018-Nov-17 18:20 117 3 gusting 7 10.0
2018-Nov-17 18:15 077 1 gusting 6 10.0
2018-Nov-17 18:10 076 2 gusting 6 10.0
2018-Nov-17 18:05 076 1 gusting 6 10.0
2018-Nov-17 18:00 074 0 gusting 7 10.0
2018-Nov-17 17:55 087 1 gusting 6 10.0
2018-Nov-17 17:50 088 0 gusting 5 10.0
2018-Nov-17 17:45 086 1 gusting 4 10.0
2018-Nov-17 17:40 086 2 gusting 5 10.0
2018-Nov-17 17:35 084 0 gusting 6 10.0
2018-Nov-17 17:30 067 1 gusting 4 10.0
2018-Nov-17 17:25 065 4 gusting 8 10.0
2018-Nov-17 17:20 069 2 gusting 6 10.0
2018-Nov-17 17:15 064 2 gusting 8 10.0
2018-Nov-17 17:10 068 3 gusting 7 10.0
2018-Nov-17 17:05 062 4 gusting 10 10.0
2018-Nov-17 17:00 074 1 gusting 4 10.0
2018-Nov-17 16:55 074 1 gusting 6 10.0
2018-Nov-17 16:50 074 4 gusting 8 10.0
2018-Nov-17 16:45 064 3 gusting 7 10.0
2018-Nov-17 16:40 060 1 gusting 6 10.0
2018-Nov-17 16:35 060 3 gusting 7 10.0
2018-Nov-17 16:30 065 2 gusting 7 10.0
2018-Nov-17 16:25 061 0 gusting 1 10.0
2018-Nov-17 16:20 061 0 gusting 2 10.0
2018-Nov-17 16:15 061 1 gusting 6 10.0
2018-Nov-17 16:10 061 1 gusting 6 10.0
2018-Nov-17 16:05 061 0 gusting 4 10.0
2018-Nov-17 16:00 061 10.0
2018-Nov-17 15:55 061 1 gusting 4 10.0
2018-Nov-17 15:50 061 0 gusting 4 10.0
2018-Nov-17 15:45 061 1 gusting 2 10.0
2018-Nov-17 15:40 061 1 gusting 6 10.0
2018-Nov-17 15:35 061 10.0
2018-Nov-17 15:30 059 2 gusting 6 10.0
2018-Nov-17 15:25 056 10.0
2018-Nov-17 15:20 056 1 gusting 4 10.0
2018-Nov-17 15:15 055 0 gusting 2 10.0
2018-Nov-17 15:10 055 2 gusting 6 10.0
2018-Nov-17 15:05 045 2 gusting 6 10.0
2018-Nov-17 15:00 063 10.0